Theta_e
343 340 336 335 337 340 345 348 353 354 354 354 354 357 358 356 357 359 356 355 357 354 351 354 351 350 353 353 352 352 351 349 347 348 352 352 348 343 337 339 343 344 344 344 342 334 329 330 333 332 331 333 332 332 335 337 337 334 331 330 330 331 331 332 332 330 327 326 325 325 324 326 327 326 324 325 328 329 328 324 321 320 321 326 335 342 342 341 339 336 335 334 334 337 338 339 343
335 334 336 339 342 346 350 350 353 355 353 354 354 358 358 356 358 359 356 355 357 353 351 353 351 351 352 351 351 352 352 348 347 349 352 350 347 342 337 341 343 344 344 341 340 337 331 329 332 332 330 332 330 330 334 336 336 332 327 325 326 327 327 327 328 327 325 325 324 325 326 326 326 324 325 328 330 327 323 320 320 323 328 334 340 342 340 340 339 338 337 336 339 341 341 342 345
337 340 343 346 348 351 352 351 353 353 352 353 355 358 356 359 359 356 354 354 355 352 353 353 352 352 352 353 352 354 354 350 350 351 351 349 345 341 340 341 343 344 344 341 338 337 332 328 331 331 330 330 328 327 332 335 335 331 326 324 324 325 325 325 325 325 325 325 325 326 326 325 324 325 328 330 329 323 319 319 323 331 334 336 340 341 341 341 339 338 338 339 341 341 342 344 346
345 347 349 350 351 352 353 354 355 353 353 352 354 359 356 358 357 352 352 353 352 353 354 353 354 352 353 356 353 354 353 351 353 351 349 347 343 339 341 342 343 344 344 342 337 335 331 326 328 329 328 327 326 326 330 334 334 331 327 324 323 323 324 324 324 324 325 325 325 325 325 324 326 328 330 331 328 321 318 321 328 334 335 337 341 341 341 341 339 338 340 343 342 342 344 345 346
348 350 351 351 352 353 353 355 356 354 355 355 355 359 356 354 354 352 351 351 352 353 353 353 354 353 353 354 351 354 354 352 353 351 347 344 341 339 341 342 343 343 343 342 337 335 329 326 327 326 326 326 326 325 330 334 334 332 327 325 322 322 323 323 324 324 325 325 325 324 325 326 328 331 333 334 330 322 319 323 330 333 334 337 339 340 341 340 338 339 342 344 343 343 345 345 346
349 351 351 352 353 352 353 356 355 356 358 358 359 360 356 353 353 351 350 350 352 352 353 352 354 354 354 353 352 354 353 352 353 350 344 342 341 339 341 343 344 343 343 343 340 337 330 326 325 325 326 327 327 326 330 332 333 331 328 325 323 322 323 324 324 324 324 324 324 325 327 329 331 333 336 335 329 322 319 324 330 333 335 337 338 340 340 337 336 340 342 344 343 343 345 345 346
351 352 352 353 354 352 355 356 353 355 357 357 360 360 355 352 352 350 350 351 351 351 353 352 352 355 355 354 354 354 353 353 353 349 342 340 340 339 341 342 344 343 343 343 342 339 335 332 324 324 329 328 327 326 329 331 332 330 328 326 323 322 323 324 324 324 324 324 325 327 329 330 333 336 337 333 324 320 321 326 332 335 336 336 337 337 335 334 337 341 342 342 342 344 345 346 346
352 352 352 353 355 354 355 355 354 356 357 357 357 356 352 351 351 350 350 351 350 350 353 353 352 355 355 353 353 354 354 353 352 346 340 341 339 339 341 343 344 344 344 343 344 341 339 337 325 324 330 327 326 326 328 329 330 329 327 326 323 322 322 323 324 324 324 326 327 329 331 332 336 337 337 331 322 321 324 330 335 336 335 335 334 332 330 334 337 339 341 340 342 344 346 346 345
353 353 352 353 356 355 354 355 357 359 360 359 356 354 351 351 352 350 351 351 350 350 352 352 352 355 355 352 354 354 353 353 350 343 339 341 338 339 341 342 344 344 344 343 344 342 339 337 325 324 328 326 325 325 326 326 327 327 326 324 322 322 322 323 323 324 325 327 330 331 332 334 336 337 336 330 322 324 329 333 335 334 333 332 330 329 331 336 337 339 340 340 341 343 345 345 343
353 352 352 353 354 352 354 356 357 360 360 358 356 354 352 351 352 351 351 350 350 351 351 351 352 354 354 354 355 354 354 354 348 339 340 342 339 340 341 343 344 343 343 343 344 343 342 338 326 324 326 325 325 323 324 324 325 324 323 323 322 322 322 323 324 326 327 329 331 331 332 334 336 336 335 328 325 329 332 333 332 332 332 330 329 331 335 338 338 339 339 339 340 341 342 342 343
353 352 351 352 352 351 354 356 356 358 356 355 356 354 354 351 351 353 352 350 351 351 351 352 353 353 353 353 354 354 356 354 344 337 341 342 341 342 341 343 344 343 344 344 345 344 344 339 327 324 325 324 324 323 323 323 323 323 322 322 322 323 323 325 326 328 329 330 331 332 333 335 337 336 332 329 330 333 333 331 329 331 331 329 331 335 338 337 335 336 338 339 340 340 341 341 342
353 352 353 354 354 353 353 354 355 356 356 357 357 353 353 350 351 354 353 352 352 352 353 353 354 352 352 353 354 355 356 351 341 338 342 342 342 342 342 343 344 344 344 344 345 343 341 335 327 327 325 324 324 323 323 322 323 322 322 323 323 324 325 326 328 329 330 332 333 334 337 339 339 334 331 332 333 333 331 328 328 329 328 331 335 337 337 334 333 336 339 340 340 340 341 341 342
353 350 354 357 355 355 354 354 355 357 360 357 355 353 351 349 351 354 353 353 353 354 355 354 354 354 354 354 355 356 355 349 341 340 342 341 342 343 343 343 344 343 343 343 341 336 334 331 329 328 324 324 324 323 324 323 323 323 323 324 325 326 327 328 329 331 333 335 337 339 342 340 337 333 333 333 333 331 328 327 328 328 328 332 336 336 334 332 334 338 340 340 340 340 340 341 342
352 350 353 356 356 357 356 357 356 358 361 355 353 353 351 349 349 353 353 353 353 355 355 354 354 355 355 354 356 355 354 349 343 343 342 340 341 343 344 344 343 342 341 341 335 331 330 329 328 326 324 324 324 324 324 323 323 324 325 326 327 327 328 330 333 336 338 339 341 342 341 337 334 333 333 332 330 328 327 328 327 327 330 333 335 334 332 333 337 340 340 340 340 340 340 341 342
353 351 353 356 358 359 358 359 356 356 359 356 354 353 352 350 349 352 353 353 354 355 355 354 354 355 355 355 357 355 353 350 345 344 343 340 340 341 341 341 340 339 340 338 331 329 328 327 327 326 325 325 324 324 324 324 325 325 326 327 327 329 332 336 339 341 342 342 342 340 337 335 334 333 331 328 327 327 327 328 327 329 333 334 333 333 332 335 339 340 340 340 340 340 340 341 343
354 351 352 358 358 359 359 359 357 356 357 354 353 353 354 352 349 351 352 352 353 354 355 355 355 355 355 354 356 354 352 351 348 346 344 342 341 341 340 339 337 337 339 337 330 329 328 328 327 326 326 326 325 325 325 326 325 327 329 331 333 336 339 341 342 342 342 340 338 336 334 332 331 329 327 326 327 327 328 330 331 333 334 333 333 332 333 337 340 339 341 343 343 342 341 344 345
354 352 354 360 358 361 363 361 359 356 356 353 352 353 355 354 350 351 353 353 353 354 355 355 355 354 354 353 354 353 352 352 350 347 345 344 343 341 340 338 336 336 338 336 331 330 329 328 327 327 327 326 326 326 326 326 327 331 333 335 338 339 339 339 338 337 336 334 333 332 330 329 328 327 327 326 327 329 332 335 335 334 333 332 332 333 336 339 339 340 343 345 345 344 343 345 345
353 353 356 360 362 364 364 364 359 353 357 355 351 352 355 356 352 351 353 353 353 354 355 355 355 353 353 354 354 354 354 353 350 348 346 344 343 341 337 335 335 335 335 335 333 331 330 329 328 328 328 327 327 326 326 329 333 334 333 332 333 333 332 331 329 329 328 327 328 327 327 328 327 328 327 326 331 335 336 336 333 332 332 332 334 337 339 340 341 343 345 344 343 343 343 344 345
353 354 356 361 365 362 356 357 355 351 355 353 351 352 353 356 352 351 353 352 352 354 354 354 355 353 354 355 355 355 354 354 352 349 347 344 343 341 337 332 332 334 334 334 333 332 331 330 329 328 328 327 326 327 331 335 336 333 330 329 329 328 327 326 325 324 323 323 324 325 326 328 328 328 329 331 337 337 335 334 333 334 336 338 340 342 344 344 346 347 346 343 342 343 344 345 345
353 353 360 366 363 358 351 351 351 349 351 350 352 353 352 353 353 353 353 352 352 354 354 353 354 353 355 356 355 355 355 354 353 350 347 345 343 342 339 332 329 330 331 331 330 329 329 328 327 326 326 327 328 332 335 336 333 331 331 330 327 326 325 324 323 322 322 322 322 324 327 328 328 332 335 337 338 335 333 335 338 341 344 346 346 346 347 347 348 347 345 344 345 346 346 345 345
354 355 367 367 355 355 354 350 350 349 348 350 352 354 354 353 354 355 354 355 355 353 353 354 354 354 355 357 355 355 355 354 353 351 348 346 344 343 341 336 329 327 327 327 326 326 326 326 326 327 328 331 334 335 335 334 332 331 330 328 325 325 324 323 323 323 324 323 325 327 330 331 333 338 340 337 337 338 338 340 343 345 347 347 347 346 346 347 347 345 345 345 347 347 347 346 346
355 357 359 356 350 354 354 350 351 350 349 350 352 356 356 353 354 355 355 359 358 353 354 354 353 353 355 356 355 355 354 354 353 352 349 345 343 343 341 338 332 328 327 327 328 328 328 329 330 332 333 335 335 335 334 333 332 331 328 326 326 324 324 325 327 327 328 329 331 334 335 337 339 341 339 337 340 343 343 344 345 346 346 346 345 345 345 347 347 345 345 347 347 348 348 347 347
357 358 352 351 351 352 353 351 352 350 350 351 352 355 353 352 355 355 355 357 355 353 354 353 353 353 355 355 354 354 353 352 352 351 349 345 342 342 340 338 336 333 332 332 332 332 332 333 334 335 335 335 334 334 334 333 331 329 327 327 326 325 328 330 331 332 333 335 337 338 339 339 340 340 339 341 344 344 345 346 346 346 346 346 345 344 345 346 347 347 347 348 347 348 347 347 346
356 359 353 352 352 351 351 351 351 350 350 350 352 353 352 354 356 355 355 355 353 354 354 353 353 353 355 355 354 353 352 352 350 349 349 345 341 341 340 339 339 338 337 336 336 335 335 334 335 335 335 335 334 333 333 332 329 327 328 328 326 329 333 334 334 336 337 338 339 340 340 340 340 340 342 345 345 344 345 345 345 345 346 346 345 344 346 347 347 347 347 347 347 346 346 345 345
357 360 355 351 352 351 352 352 351 352 350 350 351 352 352 354 355 354 354 355 353 353 354 353 352 354 355 355 354 353 353 352 350 348 347 345 342 341 341 340 340 340 339 338 337 336 336 335 335 335 335 334 333 333 331 329 328 328 330 328 328 334 337 336 338 339 339 339 340 340 340 340 342 343 345 346 345 346 346 345 345 345 345 346 346 346 347 348 347 347 347 346 346 345 345 344 344
356 356 353 351 352 351 351 352 351 352 350 350 352 353 353 352 354 355 354 355 354 353 354 353 352 354 355 354 354 354 354 354 352 349 348 346 343 341 341 342 342 341 340 339 337 336 336 335 335 335 334 334 333 331 328 328 331 334 333 328 332 338 339 338 340 340 339 339 340 341 341 342 344 346 347 347 346 347 346 346 344 344 345 347 347 347 348 347 347 347 346 346 345 345 344 344 344
353 352 352 351 350 349 348 349 350 351 350 349 355 357 354 351 355 361 355 353 355 353 354 353 353 354 355 355 353 354 354 355 354 352 352 350 346 343 343 344 342 342 341 340 338 336 335 334 335 334 333 333 331 329 328 332 335 335 333 332 337 341 340 340 340 339 339 340 340 341 344 345 346 347 347 347 347 347 346 346 345 345 346 348 347 347 347 347 347 346 345 345 344 344 344 344 345
349 349 351 349 346 345 345 349 349 351 353 349 353 358 354 353 358 361 354 353 355 353 354 353 353 354 354 355 353 353 354 354 355 354 353 351 349 346 344 344 343 342 343 341 339 336 335 334 334 334 332 331 328 329 332 335 335 335 335 336 340 341 341 341 339 338 339 340 341 341 344 347 347 347 347 347 347 346 346 346 346 347 347 348 348 347 346 346 345 345 345 345 344 344 345 345 346
345 347 352 352 352 354 349 350 350 352 356 351 351 359 360 358 358 357 352 354 356 352 354 353 353 354 353 354 352 353 354 354 355 354 353 351 349 348 346 345 345 344 343 341 339 336 334 334 333 332 330 328 328 331 335 336 337 339 339 339 340 341 341 340 338 337 339 341 341 342 344 346 346 347 346 345 346 346 346 347 347 348 348 348 347 346 346 345 345 346 346 346 345 346 347 347 346
345 349 353 353 356 363 353 351 353 353 354 352 352 360 369 365 355 355 354 354 355 354 354 353 353 354 352 353 352 353 354 355 356 354 353 351 349 349 347 347 347 344 341 340 339 336 334 333 331 329 327 327 329 333 337 338 341 343 341 339 340 340 339 339 337 336 339 342 342 343 345 345 346 346 345 344 344 345 345 347 347 347 347 347 346 346 345 346 346 347 346 346 346 347 347 347 347
353 349 354 354 351 363 359 350 356 360 355 352 354 360 372 369 353 353 356 353 355 355 355 354 353 354 353 353 352 352 354 355 355 354 353 352 349 349 349 349 348 345 341 338 337 334 332 331 330 328 327 329 332 335 338 340 343 344 342 340 339 338 338 338 337 336 339 342 342 343 344 344 344 345 345 344 344 344 343 345 347 346 347 347 346 346 346 346 346 346 346 346 346 346 346 346 346
360 344 351 358 349 361 365 350 354 366 359 352 356 363 371 365 352 354 357 354 355 355 356 355 354 354 353 353 352 352 353 354 354 354 353 352 350 349 349 350 349 346 343 339 334 332 331 330 329 329 328 331 335 337 339 341 343 344 344 343 341 338 337 338 338 337 338 341 342 343 343 342 343 344 345 344 343 344 342 343 346 347 347 347 346 346 346 346 346 346 346 346 346 346 345 345 344
362 346 347 356 351 354 356 351 352 358 359 355 355 364 369 360 353 356 357 355 355 356 356 355 354 355 353 353 353 352 352 353 354 353 353 353 351 350 349 349 348 346 345 342 338 336 335 332 330 330 329 332 336 337 340 341 342 343 344 345 344 340 339 341 341 340 340 340 340 339 339 339 341 342 342 342 340 339 339 341 345 347 347 347 346 345 345 346 346 346 346 345 345 344 344 344 343
356 353 351 354 352 348 346 351 352 351 361 363 358 361 362 357 355 356 357 356 355 355 354 352 353 354 354 354 353 353 352 352 353 353 353 353 352 350 349 349 348 347 346 345 344 343 342 340 337 335 334 336 338 339 340 341 342 343 344 345 345 343 341 343 343 342 342 339 336 335 336 338 340 341 340 339 337 335 336 339 344 347 347 347 346 345 345 345 345 345 345 344 344 344 344 345 344
346 348 348 347 347 344 343 347 352 357 365 364 361 362 358 356 356 356 358 357 355 355 353 350 351 351 353 354 353 353 353 352 351 352 351 351 351 350 350 349 348 348 347 347 346 345 345 345 343 340 340 340 340 340 340 342 343 342 344 345 344 343 343 343 343 342 341 338 336 338 341 343 344 345 344 341 337 335 335 337 343 346 347 347 345 345 344 344 344 344 344 344 344 345 345 346 346
343 343 343 341 341 340 340 342 349 360 365 365 364 363 361 359 356 356 358 358 355 355 353 350 349 350 351 353 354 353 353 352 350 350 350 350 350 350 349 349 348 348 347 347 347 346 346 346 344 342 343 343 342 342 341 342 343 342 343 344 343 342 342 342 343 342 339 338 340 343 344 345 346 347 346 343 338 335 335 336 340 343 345 345 344 344 343 343 344 344 344 345 345 345 345 347 347
343 343 343 342 339 338 338 337 344 354 362 367 363 362 366 362 355 355 357 358 357 355 353 350 349 350 350 351 353 354 353 352 351 350 350 349 350 349 349 349 349 349 347 347 347 346 346 346 344 342 343 344 344 344 342 341 342 342 342 342 341 341 341 342 343 343 342 342 344 344 344 344 345 346 346 343 338 334 334 336 339 342 343 343 343 343 343 344 344 344 344 346 346 345 346 347 347
340 342 342 338 335 337 337 336 342 350 358 366 361 362 367 359 355 357 357 358 357 355 353 351 350 350 350 351 353 355 353 353 352 351 350 349 349 349 349 349 348 348 347 347 347 346 346 346 343 342 343 344 345 344 342 339 340 341 341 340 339 339 340 342 344 345 344 345 345 344 345 345 345 346 347 345 338 333 335 338 340 342 342 343 344 344 345 345 345 345 345 345 345 345 346 347 348
336 337 336 335 334 336 338 342 353 354 354 363 364 366 366 356 354 355 356 358 356 355 354 352 351 350 351 353 353 354 354 354 353 351 350 349 349 349 348 347 346 346 346 346 346 347 346 346 343 342 343 344 344 344 342 340 339 340 341 340 339 339 340 342 344 345 345 345 345 345 345 345 346 346 347 344 337 334 337 340 342 343 343 345 345 345 345 345 345 345 345 345 345 345 347 348 348
334 334 332 332 332 332 335 344 361 362 354 359 369 372 367 358 355 356 355 357 356 356 355 353 353 352 352 353 353 354 354 354 353 351 351 350 349 350 348 347 346 345 346 346 346 347 347 345 343 342 342 344 344 344 343 340 338 339 341 341 339 340 341 342 344 345 345 344 345 345 344 345 346 346 346 343 336 336 340 342 343 343 344 345 345 344 344 345 346 345 345 346 346 347 348 349 349
335 334 331 332 332 332 332 338 358 366 358 360 366 367 367 361 358 359 355 355 357 355 355 354 353 353 352 353 353 354 354 354 353 351 350 351 350 351 350 348 347 346 346 346 346 346 346 345 343 342 342 343 344 344 344 341 338 339 341 342 340 340 342 343 344 345 344 344 344 345 345 345 346 345 343 341 338 337 339 342 343 344 344 344 345 345 345 346 345 346 346 346 347 349 350 350 349
332 333 333 332 331 331 331 337 348 352 352 356 353 349 358 361 359 360 358 357 357 354 354 354 353 353 352 352 353 354 354 354 354 352 349 350 351 351 350 349 349 348 347 346 346 346 346 345 344 343 343 342 343 344 344 341 338 338 340 341 340 339 341 343 344 344 344 344 345 345 346 346 346 345 342 339 338 339 340 341 343 343 344 344 345 345 345 346 345 346 346 346 348 350 351 350 345
328 334 335 331 333 330 330 338 345 344 342 346 350 345 347 355 357 357 358 358 357 355 355 354 353 353 352 352 353 353 355 355 354 354 351 350 350 351 350 349 349 349 348 347 347 346 346 347 345 345 344 342 343 343 344 342 339 338 339 339 339 339 340 342 343 343 344 344 345 346 346 345 346 345 343 341 339 340 342 343 343 344 344 344 345 345 345 345 345 345 345 346 349 351 351 347 336
330 338 335 333 337 331 333 340 343 349 343 343 358 355 344 350 354 353 358 359 359 357 356 354 353 353 353 353 353 354 355 355 355 355 354 352 351 350 350 349 349 348 349 348 348 347 346 346 346 345 345 343 343 343 344 343 340 339 339 337 337 338 340 342 343 343 344 345 346 346 345 345 345 344 344 342 341 342 343 343 344 344 344 344 344 344 344 344 345 344 345 347 350 351 349 338 327
333 336 332 336 339 335 338 341 342 348 339 337 355 355 344 352 356 355 359 359 358 359 356 355 354 353 354 353 354 355 355 355 355 354 355 354 352 351 350 349 349 348 349 349 347 347 346 346 346 345 345 344 342 343 344 343 341 340 340 337 335 337 339 340 341 342 343 345 345 346 346 345 345 343 343 343 342 343 343 344 344 344 344 344 344 344 344 344 344 344 346 347 350 350 342 329 324
330 330 331 337 341 343 344 343 344 342 333 333 346 348 345 352 358 358 360 362 360 358 356 355 354 353 354 354 353 355 355 355 355 355 354 354 353 352 352 350 349 348 349 349 348 347 346 346 346 345 346 344 342 343 343 343 342 340 340 338 334 335 338 339 341 343 344 345 346 346 346 345 344 343 343 343 342 343 343 343 344 344 344 344 344 344 344 344 344 344 345 347 350 346 334 325 325
327 330 337 341 348 356 359 359 348 335 338 342 342 347 345 344 353 358 361 366 364 361 361 356 354 353 353 355 354 354 355 355 355 355 354 354 353 353 353 351 350 350 350 349 347 346 346 346 347 346 345 344 342 343 343 343 343 341 341 339 334 335 340 341 343 344 343 345 346 346 345 344 344 344 343 342 342 342 342 343 343 344 343 344 344 344 344 344 344 344 346 349 348 339 327 324 325
328 337 344 339 344 350 352 357 345 332 344 347 342 347 341 338 352 362 363 366 360 361 369 362 355 354 353 354 355 354 355 355 355 355 355 354 354 353 353 352 351 351 351 350 347 346 347 346 346 346 345 344 343 343 343 343 343 342 342 340 333 335 342 344 344 345 344 345 346 346 345 345 345 345 343 342 342 342 343 343 344 344 343 344 344 345 345 345 345 346 347 349 344 331 324 325 325
331 340 346 339 341 342 342 347 340 334 340 338 340 344 339 342 355 359 366 371 363 357 361 360 355 353 353 354 355 355 355 355 355 356 355 355 354 353 353 353 352 352 351 350 347 346 346 346 346 346 345 344 343 343 343 343 343 342 342 341 334 333 341 345 345 345 345 344 345 345 345 346 346 346 344 342 342 343 344 344 344 344 343 343 343 343 344 345 347 348 348 346 337 327 324 325 326
329 334 340 338 342 341 342 347 337 331 336 334 339 342 338 344 349 352 358 358 356 353 353 355 354 354 354 354 355 355 355 355 355 355 355 355 355 353 353 353 352 352 351 350 349 347 347 347 347 346 345 345 344 344 343 343 343 342 342 342 335 332 339 345 345 346 346 345 345 344 344 345 345 346 345 343 343 344 344 344 344 343 342 342 342 343 344 346 348 348 346 341 331 324 325 326 327
333 338 336 334 344 340 337 343 337 334 339 335 334 337 340 341 340 350 351 340 344 348 351 355 353 353 355 353 354 354 355 355 354 355 355 355 355 353 352 352 352 352 351 351 350 348 347 347 347 347 346 345 344 344 344 343 343 342 342 342 337 331 336 344 346 346 347 348 347 346 345 345 345 345 345 344 345 345 344 345 344 342 342 341 343 343 345 348 349 347 343 336 327 324 325 327 328
331 338 333 329 342 343 336 338 339 336 334 334 334 336 346 349 342 348 347 342 346 346 349 354 354 354 354 353 354 353 354 355 355 355 355 355 355 353 352 352 352 352 351 351 350 349 348 347 347 347 346 345 345 344 344 343 342 342 342 342 337 333 335 343 346 346 347 347 347 347 345 345 345 345 345 345 345 345 344 344 343 343 343 342 344 345 347 349 347 344 341 332 324 324 326 327 328
331 331 330 331 336 342 337 334 339 334 327 337 340 336 348 351 342 351 356 351 354 355 355 353 353 355 354 353 354 353 354 355 354 355 354 355 355 353 352 351 352 352 351 351 351 350 349 347 346 346 346 345 344 344 344 343 343 342 342 342 339 333 334 341 345 346 346 346 346 346 346 346 346 345 345 344 343 342 342 343 343 343 343 342 344 346 349 348 344 342 337 327 323 325 327 328 328
335 329 330 336 336 342 339 331 338 336 331 342 343 337 347 345 338 353 364 356 359 367 365 354 352 354 353 354 354 353 355 354 354 355 354 354 355 353 353 351 351 352 351 351 351 351 349 347 346 346 345 345 344 344 344 343 343 343 342 342 340 335 333 336 341 343 344 344 345 346 347 347 347 346 345 343 341 342 343 343 343 343 342 343 345 348 349 345 342 341 333 324 324 326 327 328 328
334 331 334 340 338 340 337 330 334 333 330 340 343 339 343 343 346 354 357 358 364 369 367 363 358 354 352 354 354 353 354 354 354 355 354 355 354 354 354 352 351 352 351 352 352 351 350 347 346 345 344 345 344 344 344 344 344 343 343 343 340 337 333 333 337 340 341 343 344 346 348 348 347 346 346 345 344 344 343 342 342 342 343 345 347 349 346 342 342 338 328 323 325 326 328 329 328
330 330 333 339 341 340 335 331 333 332 330 335 339 339 340 346 357 359 354 361 366 369 378 376 360 353 353 354 354 353 354 353 354 354 354 354 354 354 354 352 352 351 351 353 352 352 351 348 346 345 344 345 343 343 344 344 344 343 343 342 340 338 334 333 335 337 339 341 343 345 347 348 348 347 346 346 347 345 343 341 342 343 345 347 349 347 342 341 342 334 324 324 326 326 328 328 327
328 328 329 330 334 336 332 330 330 333 336 338 335 336 344 350 355 357 354 358 361 369 384 376 355 351 355 353 354 355 354 353 354 353 354 354 354 354 354 353 353 351 351 352 352 352 351 349 346 345 345 344 343 344 344 343 344 343 343 342 341 339 336 334 334 336 338 341 343 345 347 349 348 347 346 345 346 346 343 343 343 345 347 349 348 344 341 343 340 329 323 325 325 327 328 328 327
333 331 330 331 333 334 331 331 333 330 332 339 334 329 343 350 343 347 351 353 354 355 362 362 352 350 354 353 353 354 354 354 354 353 353 354 354 354 354 354 353 352 352 351 352 352 351 349 347 345 345 344 343 344 344 344 343 343 343 342 341 340 337 335 334 334 336 339 342 344 346 349 348 345 344 345 346 345 344 345 345 347 349 349 346 342 341 342 335 325 323 325 325 327 328 327 327
Wind_Speed
21 21 21 19 18 15 11 6 1 1 0 1 2 1 1 1 2 2 2 1 1 1 2 5 15 16 7 5 6 3 3 8 6 4 2 3 12 23 30 31 28 27 27 27 27 28 28 28 28 29 30 26 20 17 19 17 15 15 14 14 14 14 14 13 12 11 11 10 9 8 6 4 1 1 3 5 6 7 8 8 8 7 7 6 7 8 9 9 10 11 11 10 9 9 8 7 7
22 22 20 17 15 9 5 4 1 1 1 2 2 1 1 1 2 1 1 2 1 3 5 9 18 13 4 7 8 3 3 8 8 4 1 5 22 30 32 30 28 28 27 28 28 28 28 28 27 28 29 25 20 17 19 18 16 14 13 13 13 13 13 13 12 12 11 9 8 7 5 3 1 2 4 5 6 7 7 6 6 6 7 7 9 9 9 10 11 11 11 10 9 9 8 7 8
20 18 16 14 10 4 3 2 1 1 1 1 3 2 0 1 1 1 1 2 2 5 7 10 16 9 4 7 6 2 3 6 8 6 4 15 28 33 32 29 28 27 27 29 29 28 28 29 27 27 27 24 20 19 19 19 17 15 13 13 12 13 13 13 12 11 10 8 7 5 3 2 2 4 5 6 6 7 7 7 7 8 9 10 9 9 10 10 11 11 11 10 10 9 9 8 9
15 12 10 8 4 2 2 1 0 1 1 1 2 2 1 1 1 2 1 2 3 5 6 9 8 5 3 3 6 2 4 6 8 8 9 22 30 34 33 29 28 27 27 28 28 28 28 29 27 26 25 22 20 20 21 20 18 16 13 12 12 12 12 11 10 9 8 6 5 4 2 2 3 5 5 6 7 7 8 8 9 10 11 10 9 9 10 10 11 11 10 9 10 9 9 9 9
10 8 4 2 1 1 1 0 0 1 2 2 1 3 1 0 1 3 1 1 5 4 5 7 4 5 4 3 7 3 4 6 8 10 12 24 32 34 33 29 29 27 26 27 27 28 28 29 27 25 23 21 21 22 22 21 19 16 14 12 11 11 11 10 9 8 7 6 4 3 3 3 4 5 5 6 7 8 8 9 10 10 10 9 9 9 10 11 12 10 9 10 10 9 9 9 10
5 4 1 2 2 1 1 1 1 2 3 3 1 3 0 0 3 4 2 2 4 5 7 6 5 8 5 3 5 2 4 5 8 13 17 28 34 34 33 30 29 27 26 27 27 27 27 28 27 25 23 21 22 22 23 22 20 17 14 12 11 10 10 10 9 8 6 5 4 4 4 4 4 5 5 6 7 7 7 8 9 9 9 9 10 10 11 12 12 10 10 10 10 9 9 9 9
2 2 2 3 3 0 0 0 2 3 3 2 2 3 1 1 3 5 4 3 1 5 7 6 9 10 4 4 3 1 5 7 9 15 22 31 35 34 33 31 29 28 27 26 26 26 27 26 27 26 23 21 21 22 23 22 20 17 14 12 11 10 10 9 9 7 6 5 5 4 4 5 5 5 5 6 7 7 8 9 9 9 9 9 10 11 12 12 11 10 10 10 9 8 8 9 9
1 2 1 1 1 1 0 1 3 3 3 1 1 2 3 3 5 5 4 4 1 3 5 7 10 6 2 6 5 1 6 10 13 18 27 33 35 34 33 31 29 28 27 26 26 25 26 25 27 27 23 21 21 22 22 21 20 17 15 13 12 10 9 9 8 7 6 6 5 5 5 5 5 5 6 7 8 8 8 9 9 9 9 9 11 12 12 11 10 10 10 10 9 8 8 8 8
2 3 1 1 1 1 1 2 3 2 2 1 1 2 3 4 7 7 4 5 4 4 4 9 7 2 4 6 7 6 7 9 14 23 30 34 35 34 33 31 29 28 27 26 25 24 25 24 27 27 24 21 20 20 20 20 19 17 15 13 12 11 10 9 9 8 7 6 6 5 5 5 6 7 7 8 8 8 9 9 9 9 9 10 12 12 11 10 9 10 10 9 8 7 7 8 9
2 2 1 1 1 2 2 2 3 2 2 1 1 1 1 4 8 6 5 6 7 4 4 8 5 6 10 7 7 10 9 8 16 27 31 34 34 33 32 30 28 27 27 26 24 24 23 23 26 26 24 21 19 19 19 18 17 16 15 14 13 12 11 10 10 9 8 7 7 6 6 7 7 8 8 8 8 8 9 9 9 10 10 11 12 11 10 9 9 9 9 8 7 7 7 8 9
2 1 0 1 1 2 1 3 3 3 3 1 2 2 2 4 7 5 6 7 7 6 7 9 7 12 11 5 7 11 11 10 21 31 32 32 32 32 32 30 27 25 26 26 24 23 22 23 27 26 24 21 19 19 18 17 16 15 14 14 13 12 11 11 10 9 9 8 8 7 7 8 8 8 8 8 8 9 10 10 10 10 11 12 11 10 9 9 9 9 8 7 7 7 7 8 9
1 1 1 1 1 0 1 3 4 5 4 1 1 2 3 4 5 3 5 6 7 9 10 10 11 14 7 2 9 13 14 15 25 32 30 31 31 31 31 29 28 25 25 25 23 22 22 24 27 25 24 21 19 18 17 16 15 14 14 13 13 12 12 11 11 10 9 9 8 8 8 8 9 9 9 9 9 10 11 11 11 11 11 11 10 9 9 9 8 7 7 7 7 7 8 8 7
1 1 2 1 1 1 2 2 3 4 4 2 1 3 5 3 2 2 4 6 6 6 6 9 13 10 4 4 12 15 16 18 27 29 29 29 30 31 29 28 27 25 25 23 22 22 22 23 25 24 23 21 19 18 17 16 15 14 13 13 13 12 12 11 11 10 10 9 8 7 8 9 9 9 9 10 10 11 11 11 11 11 10 10 9 8 8 8 7 6 6 7 8 8 8 8 7
2 1 2 1 1 0 1 2 2 3 3 1 1 5 7 2 2 3 4 6 3 2 5 10 11 5 5 7 11 17 18 21 27 28 28 28 29 29 28 27 26 25 25 23 22 22 22 23 24 23 22 21 20 19 18 17 16 15 14 14 13 12 11 11 11 10 9 9 7 8 9 9 10 10 10 10 11 11 10 10 10 10 9 9 8 8 7 6 6 6 7 8 8 9 8 8 8
2 2 2 1 2 2 1 1 1 2 2 1 2 5 7 4 3 3 4 5 2 5 7 10 8 4 8 7 10 19 21 24 28 28 29 28 28 27 27 26 25 26 25 24 23 22 23 23 23 22 22 21 20 19 18 17 16 15 14 13 12 11 11 11 10 10 10 9 9 9 9 10 10 10 10 10 10 9 9 9 9 9 9 8 8 7 6 5 5 6 8 8 9 9 9 8 9
2 1 2 1 2 2 1 0 0 1 2 1 2 4 6 5 5 4 4 3 4 8 8 8 5 3 11 11 15 23 24 27 28 28 29 28 27 26 25 25 25 26 25 25 23 23 23 23 23 22 22 21 20 19 18 17 15 14 13 12 12 11 11 11 10 10 10 9 9 10 10 10 10 10 9 9 8 7 7 8 8 8 8 7 6 5 5 5 6 7 9 9 9 9 9 9 9
1 1 2 2 1 1 1 1 0 1 2 1 3 3 4 4 6 4 4 3 5 7 6 6 3 6 13 13 20 25 25 28 29 30 30 29 28 26 25 25 26 26 26 26 24 23 23 22 22 21 21 20 19 18 17 16 14 13 13 12 11 11 11 10 10 9 9 10 10 10 10 10 9 8 8 7 5 5 6 6 6 6 6 5 5 4 4 5 6 8 9 9 9 9 10 10 9
1 1 1 1 1 2 3 3 3 1 1 1 3 3 3 4 7 7 5 3 5 5 6 6 4 10 13 14 22 24 26 29 29 31 31 30 29 27 26 26 26 27 27 26 25 24 23 22 21 21 20 19 19 18 16 15 13 13 12 11 10 10 10 9 9 10 10 10 10 10 9 8 8 7 6 5 4 4 4 5 5 4 4 4 4 5 5 5 6 7 8 9 9 9 9 9 9
2 2 1 2 3 3 4 4 4 2 2 1 3 3 4 5 10 11 5 3 5 4 4 6 9 14 15 20 25 24 27 30 29 31 30 30 30 28 27 27 27 27 27 27 25 24 22 22 21 20 20 19 18 17 15 14 13 13 11 10 10 10 10 10 10 10 10 10 10 9 8 7 7 5 4 3 2 3 2 2 2 2 3 5 5 5 6 6 6 6 7 8 8 8 8 9 10
2 3 0 4 4 3 5 6 6 5 4 1 3 3 4 5 10 10 8 8 6 5 7 8 12 18 22 27 26 26 28 28 29 30 30 30 29 28 27 28 28 28 27 26 25 23 22 21 20 19 18 18 17 16 15 14 13 12 11 11 10 10 10 10 10 10 10 9 9 8 7 6 5 3 2 1 1 1 0 1 2 3 4 5 5 5 6 6 6 6 6 6 6 7 9 10 11
2 4 3 4 3 2 6 7 6 6 4 2 2 4 3 6 8 10 13 10 3 8 15 15 18 23 29 31 28 28 28 28 30 29 30 30 29 28 26 26 27 26 26 25 24 22 21 20 19 18 17 17 16 15 15 14 13 12 11 11 10 10 10 10 10 10 9 9 7 6 5 4 3 3 2 1 2 2 2 2 2 3 3 4 4 5 6 6 6 5 5 5 6 7 9 10 11
2 5 8 6 3 3 8 7 5 5 4 3 4 3 3 6 8 11 14 7 4 13 18 19 22 26 31 33 31 29 28 29 30 30 31 30 29 29 26 25 25 25 25 24 23 22 21 20 19 18 17 17 16 15 14 14 13 12 10 10 10 10 10 11 10 9 8 6 5 4 4 4 3 3 3 3 3 3 3 2 2 2 3 4 5 5 5 5 6 6 6 6 6 7 9 10 12
2 5 8 9 8 7 10 7 5 5 5 4 5 4 5 7 4 10 14 5 3 13 18 18 22 26 32 34 32 31 30 29 30 31 31 30 29 29 27 26 25 25 25 24 23 22 22 21 19 18 17 17 16 15 15 14 13 11 10 10 10 10 10 9 8 6 6 5 4 4 4 4 3 4 4 4 4 4 3 1 1 2 3 4 4 5 4 5 6 6 6 7 7 8 10 11 13
4 4 6 10 10 11 14 12 8 7 6 4 5 6 7 8 3 6 13 8 3 9 16 18 22 28 33 34 33 32 31 29 29 29 29 29 29 28 27 26 25 25 24 24 23 23 22 21 19 18 18 17 16 16 15 14 12 11 10 10 10 9 9 7 6 6 5 5 5 5 5 4 5 6 6 5 4 3 1 1 1 3 4 4 4 5 5 5 6 6 7 8 9 10 11 12 14
5 6 8 7 9 12 15 14 12 10 7 5 7 5 5 8 5 3 11 12 5 9 16 18 24 31 34 35 33 32 31 28 27 27 27 27 27 27 26 26 25 25 24 23 23 23 22 20 20 19 18 18 17 16 14 13 12 11 11 11 9 9 8 7 6 7 6 6 6 6 6 6 7 7 7 6 4 3 2 2 2 3 4 4 5 5 6 7 7 8 9 10 11 12 12 13 14
7 10 10 8 11 16 15 14 12 12 9 8 7 3 4 7 5 2 8 13 10 12 18 19 25 33 35 35 33 32 32 29 27 28 26 26 27 27 26 25 25 25 23 22 23 22 21 20 20 19 19 18 17 15 14 13 11 11 10 10 9 8 7 7 8 8 7 7 7 7 7 8 8 7 6 5 4 3 3 2 2 3 4 6 6 6 7 8 8 9 10 11 12 12 12 13 15
8 11 13 12 16 19 16 13 8 8 8 9 6 3 5 6 5 2 4 14 14 15 21 21 26 32 34 34 32 31 32 31 28 28 26 25 26 26 26 25 24 24 23 22 22 21 20 20 20 19 19 18 16 14 13 12 11 10 9 8 9 8 8 8 8 8 8 8 8 9 9 9 8 6 5 4 4 3 2 1 2 3 5 7 8 7 7 8 8 9 10 11 12 13 14 15 17
13 13 13 12 12 15 13 9 5 6 4 9 8 5 5 6 4 2 6 17 17 18 23 23 27 31 32 33 30 29 30 31 29 27 27 26 25 25 25 24 24 24 23 22 21 21 21 21 20 19 19 17 16 14 12 10 9 8 8 8 8 8 8 9 8 8 9 9 9 11 10 9 7 6 5 5 4 3 2 1 3 4 6 6 7 7 7 7 8 9 11 12 13 15 17 18 19
14 9 8 9 10 9 8 5 4 6 2 10 11 4 1 4 4 3 10 20 18 19 24 24 27 30 31 31 29 28 29 29 29 28 27 25 23 23 24 23 22 22 22 21 21 22 21 21 20 19 18 17 15 12 10 8 7 6 7 8 8 8 8 8 8 8 9 10 10 11 11 9 7 6 5 4 4 3 2 2 3 4 6 6 6 6 6 6 8 10 11 13 15 16 18 19 18
10 4 1 6 9 5 6 6 6 5 3 13 11 1 4 5 7 5 13 23 21 20 24 25 27 29 30 30 29 28 28 29 29 29 26 24 22 22 22 21 21 20 20 20 21 22 21 21 20 19 18 16 14 12 9 8 6 6 6 7 7 8 8 7 7 8 9 10 11 11 11 9 7 6 5 4 4 3 3 3 4 4 5 6 6 6 7 8 10 12 13 14 15 17 18 18 18
4 3 1 3 4 4 8 3 8 5 3 14 8 1 4 5 6 8 14 23 24 22 22 23 25 27 29 29 29 28 28 29 29 28 27 24 22 21 21 21 20 19 19 19 20 20 20 21 20 19 17 15 14 12 9 8 6 5 5 5 6 7 7 7 7 8 10 10 10 11 10 9 7 6 5 4 5 5 5 5 5 4 4 6 7 7 8 10 12 13 14 15 16 17 17 17 17
3 2 3 3 2 4 9 2 6 3 3 12 4 1 5 4 2 10 15 21 23 22 21 23 24 25 28 28 28 28 27 29 29 28 27 26 24 22 21 20 18 18 17 16 18 19 19 20 19 18 16 15 14 12 9 8 7 5 4 4 4 5 6 6 7 8 9 10 9 9 9 8 7 6 5 6 6 7 7 7 5 5 6 7 8 8 9 10 12 13 14 16 18 18 18 17 17
3 2 2 3 2 4 7 3 3 3 5 6 2 0 3 3 2 9 14 19 20 20 20 23 23 23 25 27 28 28 28 29 29 28 28 28 26 23 21 19 17 17 16 15 16 18 18 18 19 17 16 15 14 12 10 9 7 6 4 3 3 4 6 7 8 9 9 9 9 8 7 6 6 6 6 7 8 8 8 8 6 6 7 8 9 8 9 10 12 14 15 16 18 19 19 19 19
4 3 1 2 2 4 5 4 3 4 5 4 4 2 2 1 3 9 13 17 19 19 19 22 24 23 23 25 27 28 30 31 32 30 29 29 28 25 22 19 17 17 16 15 14 16 16 16 17 16 15 16 14 12 11 9 7 6 4 3 4 5 7 8 9 9 9 9 7 6 4 4 3 4 5 8 9 9 8 8 7 6 8 9 9 9 9 11 13 16 17 16 18 19 20 22 22
2 3 3 4 3 3 5 5 2 5 3 3 5 5 4 3 5 9 13 16 17 17 19 21 23 24 23 24 27 29 31 32 33 33 30 29 28 26 24 22 19 19 18 16 15 15 15 14 14 15 15 15 13 12 11 9 7 7 6 5 5 7 8 9 9 9 9 9 7 6 5 3 1 2 4 6 8 8 8 8 8 7 8 9 9 9 10 12 14 16 17 18 18 19 21 23 24
2 2 2 5 6 6 8 7 4 7 4 4 7 6 4 5 6 9 12 15 15 13 16 19 20 21 23 26 27 28 31 32 33 33 31 29 29 27 25 24 22 20 18 18 17 17 16 14 14 16 16 14 13 12 11 11 9 8 8 7 7 8 10 10 10 10 10 10 8 6 4 1 1 3 4 5 6 7 8 7 7 7 7 8 9 10 12 14 15 16 18 20 21 21 22 24 25
4 4 4 5 5 8 10 6 4 7 4 4 7 5 2 5 7 8 13 15 12 11 13 17 20 20 22 25 26 29 33 34 32 32 31 29 28 27 26 25 24 22 21 21 20 19 17 15 15 16 16 14 14 13 11 11 10 9 9 7 7 8 11 12 10 10 10 8 6 4 3 2 3 4 5 6 6 6 6 6 6 6 6 8 9 11 13 14 16 18 20 21 23 25 25 25 27
4 3 5 7 4 8 11 6 3 5 5 4 2 5 2 4 6 8 13 14 12 14 14 16 21 21 22 25 27 30 32 33 32 30 30 28 27 27 27 26 25 24 24 24 23 20 18 17 15 15 15 14 14 13 11 11 10 8 6 4 5 9 12 12 10 9 8 5 4 4 4 4 4 5 5 6 6 5 5 5 5 5 5 7 9 11 13 15 17 19 21 23 25 27 28 27 30
4 3 3 6 4 4 8 5 4 1 4 4 1 4 3 3 6 7 12 11 10 16 17 18 22 22 23 25 27 30 28 29 32 32 30 29 27 26 25 25 25 24 24 24 24 22 20 19 17 15 14 14 14 13 12 11 9 7 4 3 5 9 12 13 10 8 7 6 5 5 5 4 4 5 5 5 5 4 4 3 3 3 5 7 10 12 14 16 18 20 22 25 27 28 29 29 32
4 3 2 6 5 1 4 5 5 3 1 2 1 2 2 3 5 6 10 10 7 13 17 18 21 23 24 26 27 30 29 29 33 34 32 30 28 26 24 24 24 24 25 25 26 25 23 21 18 16 14 13 13 13 12 11 10 8 5 4 6 10 13 13 11 10 9 7 6 5 4 4 5 5 5 4 4 3 3 3 3 4 6 8 11 13 15 17 19 21 23 27 30 30 30 31 33
4 5 5 8 9 5 6 5 5 4 2 1 3 3 3 2 4 4 7 9 7 11 16 16 18 21 23 24 25 28 30 31 33 36 35 32 30 28 26 23 22 23 25 26 26 26 24 22 19 16 14 13 13 13 12 11 12 10 8 8 10 13 14 14 14 12 10 8 6 5 4 4 6 6 4 4 3 3 4 4 5 5 7 9 12 14 16 18 21 23 26 29 31 31 31 32 34
4 6 11 12 13 9 7 5 3 4 4 3 1 3 5 2 5 5 5 7 8 9 12 14 17 20 21 22 24 26 27 29 33 37 38 35 32 31 29 26 23 22 24 24 26 27 25 23 20 17 15 14 14 15 14 13 13 12 11 11 12 15 16 16 15 13 11 9 6 5 4 5 6 5 4 4 3 3 3 4 6 7 8 10 12 15 17 19 22 25 28 30 31 31 31 33 35
3 5 9 11 10 9 7 4 2 1 3 4 1 2 4 4 2 5 4 7 8 8 9 12 18 20 21 23 25 26 26 27 30 35 38 38 35 33 33 31 27 24 23 23 25 27 27 24 22 19 17 15 15 16 16 15 14 14 13 12 12 15 17 17 15 13 11 9 7 6 4 5 6 4 3 4 3 3 3 4 5 7 9 11 13 16 18 21 24 27 30 31 31 31 32 34 33
4 5 4 5 7 7 6 5 5 4 2 3 4 3 1 3 3 4 4 7 8 9 9 10 16 20 22 24 26 27 28 27 29 32 36 39 38 37 36 35 32 28 24 23 25 28 29 27 23 21 19 18 17 17 18 17 15 14 13 12 12 15 18 18 16 13 12 10 8 7 5 6 6 4 3 3 3 3 3 4 6 8 10 12 15 18 21 24 26 29 31 31 31 31 33 33 30
8 8 2 3 5 6 5 5 4 2 1 4 5 2 1 4 4 2 3 7 8 11 11 10 15 20 23 25 27 29 30 29 29 31 35 38 39 38 38 37 34 30 27 24 24 26 29 28 25 23 21 20 19 19 19 18 17 15 13 12 12 14 17 17 15 14 13 11 9 7 6 5 5 4 2 2 3 4 5 6 7 9 11 14 17 20 23 26 28 30 31 31 31 32 33 31 28
6 6 2 1 1 0 2 4 4 2 2 4 6 2 2 3 4 1 4 6 8 11 10 10 16 22 24 26 28 30 30 30 29 30 33 36 37 37 36 37 36 33 28 25 24 26 29 28 26 25 23 22 21 20 20 19 18 16 14 13 12 14 16 16 15 13 12 12 10 7 6 5 5 4 4 4 3 4 6 7 9 11 14 16 19 22 25 27 28 30 31 31 32 32 31 29 28
4 5 3 2 4 3 3 2 3 3 2 5 5 4 4 1 4 2 4 5 6 7 6 8 14 21 25 27 28 30 32 32 31 31 32 33 34 34 33 34 35 32 28 25 25 27 29 28 27 26 24 23 23 21 20 20 19 18 15 13 12 15 16 15 14 13 12 12 10 7 6 6 5 5 5 4 3 4 6 8 11 13 15 18 21 23 25 26 28 29 30 31 31 31 29 28 27
1 2 1 2 5 3 4 4 3 2 3 6 4 3 5 0 5 4 7 8 5 5 6 7 12 19 25 28 29 30 31 33 33 32 32 32 32 34 33 32 33 31 28 27 27 28 29 28 27 26 25 25 24 23 22 21 21 19 16 13 12 16 18 15 14 13 12 13 11 8 7 6 5 5 6 4 3 5 6 8 11 13 16 19 21 22 24 25 26 27 28 29 30 29 28 27 24
3 1 3 4 3 4 3 3 2 1 5 3 1 3 2 3 7 6 8 9 7 8 10 11 14 20 26 29 30 31 31 33 34 33 34 33 32 35 36 34 33 31 29 29 29 29 29 28 27 26 26 26 25 24 23 22 22 20 17 14 13 17 20 17 15 14 13 13 12 10 8 7 7 7 7 6 5 6 7 9 12 15 17 19 21 22 24 24 25 25 27 29 29 28 26 24 21
3 3 2 3 2 3 1 3 2 2 4 3 1 1 1 3 4 4 6 7 8 10 13 16 17 20 26 30 32 32 32 33 35 35 35 35 35 35 37 37 35 33 31 30 30 30 30 30 28 27 26 26 26 25 23 23 22 21 18 15 14 18 21 19 17 15 13 12 12 10 10 10 10 8 7 6 7 8 9 11 14 17 17 19 20 22 23 23 23 25 27 28 27 26 24 21 18
3 4 4 3 4 3 2 3 2 3 3 3 2 1 1 1 2 4 5 5 5 7 11 15 16 17 22 27 29 31 32 33 36 36 36 37 37 36 37 37 36 34 33 31 30 30 31 30 29 28 27 27 27 26 24 23 22 21 19 17 16 18 22 21 18 16 14 12 13 12 12 13 12 10 9 8 9 10 11 13 16 16 17 18 19 20 20 21 23 25 27 26 25 23 21 18 16
3 2 4 1 4 5 1 2 4 2 1 3 2 2 3 3 4 5 2 1 2 2 6 11 13 15 17 22 27 30 33 34 36 37 37 37 38 38 38 37 36 35 34 33 31 30 30 30 29 29 28 27 27 26 25 22 21 21 20 18 17 19 22 22 19 17 15 13 13 14 14 14 12 11 11 11 12 12 13 15 16 15 16 17 18 18 19 21 23 25 25 24 23 21 18 15 15
1 1 2 4 3 6 3 1 0 3 2 3 2 2 5 3 4 6 4 2 3 3 4 8 12 15 17 22 27 30 33 35 36 38 39 38 38 38 39 39 37 36 36 35 33 31 30 29 28 28 28 28 27 27 25 23 21 21 21 19 17 19 22 23 21 18 16 14 13 14 13 13 12 11 12 13 13 13 14 15 15 15 15 16 17 18 19 21 24 25 23 22 20 18 15 13 14
4 1 4 3 1 4 3 0 3 4 1 3 2 2 5 2 1 5 6 4 2 2 3 5 8 14 18 22 27 30 33 35 36 38 38 38 37 37 39 39 38 36 36 36 34 31 29 28 27 27 27 27 27 27 26 24 22 21 21 19 17 18 21 23 22 19 16 15 14 13 13 12 11 11 11 12 11 11 13 13 14 14 14 15 16 17 19 22 23 23 21 20 18 15 12 12 13
5 4 3 2 2 1 1 1 0 1 1 3 4 4 3 2 3 4 4 4 2 2 2 3 6 13 18 21 25 28 30 31 33 34 35 36 36 36 37 38 37 37 36 35 33 31 28 27 26 25 25 25 24 25 26 25 23 22 21 20 17 17 19 20 20 19 17 16 15 14 13 13 12 11 11 11 10 11 12 12 13 13 13 14 16 17 19 22 23 21 19 17 16 13 10 11 11
3 2 1 1 3 3 1 1 2 1 1 2 3 5 3 5 5 4 5 7 3 4 4 5 8 14 19 21 23 25 27 29 31 33 34 35 35 36 36 37 37 36 36 35 33 31 29 27 27 25 25 25 24 25 26 25 23 22 22 21 18 17 17 18 19 18 18 17 16 15 14 13 12 11 11 12 11 12 12 12 12 12 13 14 16 17 19 21 21 20 17 15 13 10 9 10 10
2 1 1 1 0 1 1 0 1 2 2 2 1 3 5 6 4 6 7 7 4 6 6 6 10 16 19 20 21 23 26 29 31 32 33 35 35 35 35 36 36 36 36 35 33 32 30 28 27 26 26 26 26 25 26 25 23 23 23 22 20 18 17 18 18 19 19 19 19 17 15 14 13 11 11 12 12 13 13 11 11 12 13 14 16 17 19 21 20 17 15 13 11 8 7 9 9
4 4 3 3 2 2 1 2 2 1 2 3 3 2 7 5 2 4 4 4 4 6 6 7 11 16 17 18 19 21 23 26 29 31 31 33 33 33 32 34 35 36 36 35 33 31 31 29 28 27 26 26 26 25 25 25 24 23 23 22 20 18 17 18 18 19 20 20 20 19 17 16 14 12 12 12 12 13 12 11 11 12 13 14 15 17 19 20 18 15 13 12 10 7 7 8 8
Wind_Direction
133 134 134 136 139 139 145 159 207 299 75 314 268 228 264 124 111 154 134 171 134 106 120 122 144 140 118 150 170 141 142 165 174 153 211 258 151 160 165 168 171 169 164 159 161 162 164 166 167 171 174 171 166 160 157 156 154 153 152 152 153 153 153 156 158 157 156 154 154 157 161 167 176 290 321 326 331 332 333 335 336 341 339 337 347 356 353 349 349 347 346 347 351 354 1 8 356
127 130 132 136 138 137 153 171 328 358 19 318 272 231 267 35 105 161 113 118 74 123 128 132 148 142 83 147 153 87 125 164 187 202 335 164 155 158 164 168 171 168 165 161 163 165 165 166 167 170 172 172 170 164 160 161 160 158 156 153 152 151 151 154 157 158 158 157 157 160 166 180 232 291 313 322 325 325 325 328 333 341 342 346 353 353 347 346 346 346 350 350 354 356 3 6 352
126 130 133 138 139 129 136 153 327 48 9 295 275 262 271 343 74 61 67 96 92 129 121 132 152 158 79 133 155 90 174 181 201 219 145 156 159 158 162 168 170 168 165 162 165 168 166 166 167 168 170 173 174 170 167 168 166 164 162 156 153 152 152 153 155 156 157 158 161 165 178 215 270 302 315 319 321 322 323 326 338 347 349 351 350 344 341 344 344 347 351 353 356 357 3 1 353
127 129 133 142 140 98 112 115 175 122 270 243 284 273 133 305 43 71 115 109 135 140 123 127 139 164 117 133 163 138 210 205 215 220 168 163 163 158 161 168 169 167 166 163 166 170 168 166 167 169 171 174 176 176 173 173 172 172 169 162 158 157 157 158 157 158 160 165 171 185 212 261 291 306 308 313 319 323 325 333 344 348 347 346 341 336 339 342 342 346 349 352 353 355 1 356 351
131 136 136 156 151 119 134 47 169 179 238 190 278 269 141 208 153 119 138 143 165 151 136 139 107 138 138 160 167 162 199 199 219 213 180 169 163 158 162 168 169 168 166 164 167 171 170 167 169 172 174 176 178 179 177 177 177 178 175 169 165 163 163 162 163 165 171 179 192 216 249 279 293 301 304 312 317 321 326 334 340 338 336 335 333 334 340 340 340 345 347 348 350 353 355 351 350
144 158 204 282 256 164 137 51 267 249 242 178 179 263 217 119 165 148 142 119 173 158 146 147 114 126 120 149 176 213 167 178 222 203 182 169 162 160 164 168 170 169 167 166 168 172 172 171 173 173 175 177 178 180 180 180 180 181 180 177 174 170 168 168 169 174 183 197 219 243 267 284 290 296 301 306 311 317 321 324 325 325 328 330 331 337 341 338 340 345 345 345 347 350 349 347 349
167 211 243 292 291 12 64 223 252 246 267 188 165 273 22 83 168 144 153 127 141 158 152 150 125 118 107 144 160 327 164 196 230 198 177 166 162 162 165 169 170 170 170 169 169 173 172 173 176 173 175 177 178 181 182 184 184 185 185 184 182 180 178 178 181 187 200 215 237 255 272 276 279 283 290 302 313 318 315 314 317 322 327 331 335 340 339 337 341 343 341 343 344 346 346 344 346
270 283 249 324 344 36 319 255 255 211 262 253 194 293 74 155 164 131 155 131 136 162 139 147 134 105 121 142 119 99 184 214 223 190 171 164 164 164 167 170 171 171 172 171 171 173 172 174 177 174 174 176 179 181 184 187 188 189 189 189 189 190 191 192 197 206 220 231 246 258 266 269 277 286 299 312 316 313 308 309 315 322 327 333 338 340 340 340 342 340 337 341 342 343 343 344 347
283 298 314 77 30 1 296 272 277 229 258 270 281 335 92 155 142 125 129 104 139 163 128 144 145 119 144 124 111 157 192 217 206 177 166 165 166 165 168 171 173 173 172 172 172 173 174 176 178 175 176 176 179 182 183 187 189 191 190 190 191 195 199 203 210 221 235 245 255 262 267 275 284 292 303 309 306 301 299 305 317 327 331 337 340 340 341 340 336 333 335 340 344 343 343 348 356
290 281 309 100 56 1 331 294 281 266 265 253 37 10 120 145 125 121 116 116 143 138 123 144 150 136 132 119 125 164 178 205 189 167 164 166 166 167 169 172 175 175 174 174 174 176 178 179 179 177 178 178 179 180 182 185 187 189 188 191 193 198 202 207 216 228 241 250 259 264 268 272 277 284 294 295 291 292 298 313 327 330 333 339 340 341 339 335 331 330 335 342 348 350 352 357 6
313 263 234 80 26 8 336 301 292 295 291 325 65 76 110 138 122 107 109 129 144 130 144 151 151 134 124 128 145 161 162 182 177 162 163 167 167 169 170 172 176 178 177 176 177 180 182 181 180 179 179 180 180 180 182 185 187 188 190 194 197 201 204 212 221 231 242 250 258 259 263 266 271 280 288 289 290 301 313 324 327 328 335 340 338 337 335 330 329 332 336 343 352 358 3 5 13
321 307 59 78 46 343 296 303 299 308 323 17 68 72 105 137 114 105 126 133 144 149 159 153 151 139 120 144 146 155 156 170 171 161 163 167 168 170 171 173 176 181 180 180 181 182 184 179 178 179 180 181 181 182 186 188 190 192 194 197 201 206 213 221 229 237 245 250 254 255 262 267 274 285 289 293 303 315 322 323 323 328 335 337 334 332 329 326 329 333 337 345 354 358 3 5 10
313 33 69 54 182 183 291 286 291 319 345 30 89 114 116 124 79 90 133 128 138 152 152 142 149 141 104 130 142 152 154 165 168 162 164 167 169 170 172 175 177 181 182 183 183 181 180 177 177 180 181 182 183 184 188 190 192 195 198 203 208 216 223 231 238 244 246 246 251 256 263 271 281 288 293 302 313 318 320 321 322 327 331 331 329 326 323 323 329 334 342 349 353 355 357 357 358
1 43 86 338 306 271 278 275 323 3 331 332 101 133 123 118 121 120 128 127 137 156 144 145 149 133 116 131 144 155 157 164 166 162 165 166 169 170 172 175 178 182 182 182 180 178 176 176 178 180 182 184 185 187 189 192 195 199 204 210 217 225 231 237 241 243 243 244 249 255 264 274 284 290 298 307 312 315 317 319 320 322 323 323 321 321 322 326 331 338 350 352 351 351 351 353 352
6 25 90 51 347 342 295 266 336 48 291 310 92 134 112 97 139 138 136 136 164 148 140 146 142 129 155 161 158 162 161 162 165 165 166 168 169 170 173 175 179 182 182 180 178 176 175 177 179 180 184 185 188 191 194 197 200 206 212 219 226 232 236 238 239 240 243 247 251 258 268 276 284 293 302 306 309 313 315 316 316 316 315 316 318 323 328 331 337 347 355 353 350 347 346 350 345
338 1 68 44 7 348 316 208 53 51 283 39 106 140 100 96 134 144 157 148 153 141 131 147 152 148 165 169 162 164 161 161 166 168 169 170 170 171 174 177 179 182 182 180 179 178 177 179 181 183 186 188 191 194 198 201 204 209 215 223 229 233 235 236 238 241 246 251 258 265 272 278 288 297 301 303 309 312 312 315 313 311 312 315 322 330 338 343 347 352 354 353 350 344 341 346 341
328 12 64 17 26 317 255 209 193 7 288 100 118 160 111 108 121 136 166 141 142 139 123 145 175 158 162 168 163 163 160 161 167 170 171 172 171 172 175 179 180 182 182 181 182 181 181 183 185 187 189 192 194 196 201 203 206 212 217 221 224 228 233 238 242 247 254 259 266 271 277 284 293 297 298 302 307 310 310 315 310 309 315 319 331 344 354 357 356 352 348 347 350 347 340 343 344
89 106 82 335 221 208 203 196 193 163 252 150 113 141 131 128 129 135 144 117 136 136 118 125 135 144 156 165 160 162 162 163 169 172 174 174 173 173 175 180 181 183 183 184 186 186 187 187 190 192 194 196 197 198 201 202 208 216 219 221 225 232 238 246 250 256 263 268 272 276 281 286 291 292 295 298 304 311 307 312 313 312 325 337 349 0 7 4 357 349 342 341 348 349 339 340 352
154 132 72 245 211 212 207 203 198 191 227 152 81 116 133 143 148 145 143 152 153 134 110 113 122 133 147 157 158 163 164 166 172 176 178 176 176 175 176 180 182 185 185 186 188 189 192 193 196 197 198 200 199 199 200 203 210 217 220 223 229 235 243 251 257 264 269 273 273 274 276 278 284 284 287 291 302 313 306 313 332 344 359 3 3 7 10 6 0 352 344 346 354 352 339 342 354
178 151 105 243 223 248 237 227 227 235 240 207 60 111 133 146 159 155 146 159 174 175 165 145 139 143 149 156 159 162 165 169 175 179 181 180 179 179 180 181 183 187 187 188 189 191 194 196 199 201 202 202 199 200 202 206 212 218 221 227 234 239 248 257 263 268 269 270 269 269 271 271 269 262 262 267 274 292 88 82 58 37 26 14 7 5 7 5 3 358 353 360 7 356 342 345 353
156 164 201 233 199 272 258 243 246 248 237 210 121 112 131 154 168 164 146 146 205 206 184 171 163 158 156 159 161 163 168 174 177 181 183 183 183 184 186 184 185 189 189 190 191 192 195 198 201 203 204 202 202 203 205 210 215 219 223 231 240 247 255 260 263 266 267 268 267 264 258 247 235 226 214 177 155 130 113 95 64 34 17 4 352 351 359 4 5 4 1 6 7 355 344 343 346
172 225 231 238 208 259 276 265 259 244 200 182 156 136 152 159 173 179 167 156 219 207 190 179 174 169 164 163 163 165 172 177 179 182 184 185 185 186 189 189 189 190 192 193 194 195 195 197 201 203 204 204 204 206 210 214 218 223 227 236 245 253 259 259 260 260 260 258 249 239 225 216 211 203 183 161 148 133 115 93 53 6 353 346 335 338 352 0 5 3 357 356 355 349 342 338 341
242 261 238 257 245 241 276 271 256 236 189 180 171 165 154 152 181 195 192 185 184 204 194 181 178 174 170 168 166 168 175 179 181 184 186 186 187 188 189 191 192 192 193 195 196 197 196 197 199 202 205 206 208 209 214 218 221 225 229 238 246 253 256 253 249 242 236 225 214 212 204 197 189 179 165 154 147 139 124 90 19 1 354 345 333 335 346 352 356 355 349 344 344 344 343 342 341
237 284 261 281 260 243 270 270 256 244 217 198 164 157 160 163 178 200 203 198 138 194 193 183 178 173 170 170 168 171 176 180 183 186 189 188 189 190 191 193 195 195 195 196 198 199 198 197 198 203 207 209 211 211 215 218 223 225 229 238 243 248 245 236 223 214 212 203 201 200 190 181 172 163 156 151 152 151 166 261 336 356 353 344 340 344 349 353 351 347 343 339 341 343 345 346 343
214 258 267 286 267 263 281 276 259 243 224 194 166 153 167 178 172 193 211 200 161 176 184 181 175 171 171 172 171 173 176 180 184 187 190 192 193 193 194 197 198 199 199 198 200 201 200 199 199 204 208 211 212 212 215 217 221 224 228 235 238 239 232 221 211 208 205 197 195 190 182 171 163 158 158 165 170 181 233 262 321 343 348 348 347 350 349 348 348 345 343 341 341 340 343 348 345
219 240 265 282 280 289 290 277 259 236 216 188 175 132 141 179 183 247 229 197 171 169 177 178 174 172 173 174 175 175 177 181 185 187 189 194 197 198 198 201 203 203 202 202 203 202 201 201 202 205 208 210 211 212 215 216 220 224 228 231 230 228 222 217 213 209 201 193 189 183 173 164 161 163 171 187 198 217 252 268 310 333 355 356 347 345 341 338 344 349 347 342 338 337 340 343 340
263 263 278 280 286 297 289 275 258 216 207 194 175 98 124 159 176 272 231 185 171 163 171 178 176 175 176 177 178 180 181 184 187 187 189 194 199 202 202 204 208 207 206 206 205 204 202 203 204 206 208 209 210 210 213 216 220 223 224 224 221 220 216 215 213 207 198 190 186 180 172 165 168 175 188 211 224 235 257 301 337 347 357 353 340 334 333 334 342 348 347 340 335 333 332 334 334
286 291 296 289 297 305 293 283 231 174 188 195 164 91 112 136 173 251 175 172 170 162 167 175 178 178 178 179 181 183 186 187 189 189 190 196 198 200 202 206 208 207 208 208 206 206 205 204 205 206 208 207 207 207 210 214 217 219 218 215 215 214 211 213 209 201 195 190 188 184 180 178 180 188 204 219 232 245 257 318 354 352 348 343 332 328 331 334 336 340 341 337 333 331 330 333 335
293 294 306 305 330 331 322 348 175 159 139 177 154 75 70 164 204 223 163 168 167 161 166 173 179 180 179 180 182 184 188 189 191 193 196 199 199 199 201 205 208 208 208 208 208 208 207 206 206 206 206 206 203 202 202 202 202 206 209 209 211 209 208 209 201 195 193 192 193 191 190 192 193 200 213 217 227 252 267 311 342 344 339 333 328 330 330 330 330 332 335 333 333 332 332 335 336
298 293 329 316 343 338 329 13 134 127 117 170 154 32 280 232 216 180 161 169 164 159 167 174 179 181 182 183 183 185 189 190 193 197 201 204 203 201 203 206 209 210 209 209 208 208 207 206 205 205 204 203 199 196 192 186 185 190 198 205 207 206 206 204 198 194 194 196 198 197 196 200 207 217 223 225 242 275 293 311 322 328 330 323 324 326 323 326 327 327 331 330 331 331 332 335 335
299 298 65 0 354 293 310 4 136 101 162 177 150 12 258 274 231 188 168 172 167 159 167 176 179 182 184 185 186 186 189 193 196 200 203 208 209 207 208 210 211 209 208 208 207 205 206 205 205 204 202 200 197 193 184 174 172 171 177 193 203 206 204 200 197 196 197 200 203 202 205 216 228 236 241 255 275 292 300 308 311 311 316 312 314 314 315 323 325 325 329 328 329 331 332 333 332
342 328 325 352 21 280 308 321 157 89 166 189 152 96 247 313 223 178 171 174 168 159 166 176 178 181 184 187 189 189 191 195 199 203 205 210 213 213 212 215 213 205 203 204 203 202 205 207 206 204 202 199 196 190 178 173 174 166 159 171 192 202 201 197 192 194 199 204 207 209 218 232 241 245 253 273 288 294 299 303 297 296 306 304 302 306 311 322 325 325 329 328 328 331 333 332 330
359 34 297 311 348 314 319 325 204 109 117 201 231 177 252 344 114 164 171 176 165 153 161 173 175 179 184 187 190 192 194 196 197 202 207 210 214 218 217 217 212 199 197 197 198 202 205 207 207 208 207 200 195 187 178 179 181 172 162 169 183 195 199 194 190 196 201 204 208 212 223 236 242 252 265 278 288 293 298 299 291 289 299 297 294 302 312 321 325 326 329 330 328 329 330 330 328
334 12 1 275 284 308 306 312 265 154 129 200 225 231 256 39 140 164 171 177 167 151 153 169 177 179 183 187 190 193 196 198 198 199 204 209 214 219 220 219 209 199 198 198 199 202 200 201 204 204 199 195 191 185 183 186 189 189 190 193 194 193 197 196 195 199 198 197 196 191 199 212 232 262 275 281 288 291 291 291 289 286 288 290 293 303 316 323 327 326 326 327 326 325 326 327 326
41 29 359 313 291 275 265 286 237 174 190 200 189 234 239 143 143 166 173 175 172 163 152 159 177 183 185 188 191 195 198 200 202 201 203 208 214 218 221 221 214 207 208 207 208 207 200 196 194 188 184 185 185 183 188 193 199 208 210 212 204 192 195 196 193 189 184 179 169 162 173 183 225 291 296 291 291 289 285 284 287 287 286 289 296 311 324 329 329 328 325 323 321 322 324 325 323
58 0 320 303 302 287 267 269 225 188 216 215 190 222 219 159 160 170 174 173 173 175 160 155 168 181 190 194 194 198 201 201 203 204 203 206 213 217 219 221 218 214 217 218 216 213 209 199 190 187 185 185 189 191 196 201 205 215 220 222 209 192 190 188 180 173 168 166 164 170 190 215 309 322 324 310 298 291 284 286 293 298 297 295 305 324 333 334 333 331 326 321 319 321 324 323 321
332 332 315 292 285 288 284 282 241 191 191 247 207 205 190 162 180 174 173 175 171 175 172 165 168 178 193 200 198 200 204 203 202 202 203 205 211 217 220 220 219 218 223 224 220 217 214 207 197 195 193 195 201 200 201 204 206 216 226 228 211 192 189 185 173 163 160 164 178 201 234 270 298 312 319 313 304 294 286 294 305 312 309 301 313 328 333 335 334 330 325 320 320 323 326 325 324
305 314 320 306 266 272 284 292 282 193 181 290 225 182 201 175 187 178 172 179 182 183 182 179 178 180 190 198 200 202 205 204 201 199 200 200 203 211 217 218 216 219 224 226 223 218 215 210 202 200 199 202 206 204 205 209 208 215 233 249 219 196 191 186 174 165 168 183 211 238 258 266 280 293 305 304 298 293 291 303 315 326 325 317 324 330 331 332 330 327 323 320 323 325 326 326 327
286 287 315 302 270 280 291 304 347 104 182 291 316 168 222 196 188 191 184 186 192 195 195 192 188 184 188 195 198 202 204 204 201 197 196 195 195 200 208 212 213 216 223 226 223 219 216 212 207 205 206 208 207 207 210 213 212 212 229 268 225 199 193 188 184 189 204 222 231 245 257 260 279 289 293 293 286 282 293 309 320 334 339 331 329 330 331 330 325 323 322 323 326 327 326 326 330
258 252 270 280 273 289 287 304 6 35 161 236 145 158 237 184 178 202 202 196 191 199 205 204 200 196 196 198 199 201 203 203 202 199 196 194 194 196 199 203 207 213 221 225 223 219 217 213 211 211 213 214 214 213 215 215 215 214 219 233 210 196 195 197 201 208 220 227 223 230 247 263 288 297 293 284 275 271 282 304 317 328 336 329 328 329 328 325 321 321 323 325 327 327 326 327 331
249 224 220 253 265 235 219 273 334 6 4 147 107 23 315 189 181 214 206 202 200 194 199 203 207 211 208 203 202 203 204 204 203 201 198 197 199 202 200 198 203 210 217 222 222 220 216 213 214 216 219 220 219 219 219 216 215 214 215 216 205 198 202 208 209 209 214 217 212 222 246 273 289 301 300 284 276 271 276 295 312 324 329 326 327 328 324 321 321 322 324 326 326 325 326 328 330
299 236 215 228 255 255 235 261 326 4 339 280 92 23 310 260 195 214 195 201 209 188 192 200 203 211 214 208 206 205 205 206 206 204 201 201 203 206 207 204 203 208 214 220 223 222 218 215 215 219 222 222 222 222 220 217 216 216 218 222 214 207 207 210 210 208 211 212 216 229 251 279 288 303 317 308 300 295 291 298 308 319 325 327 327 323 319 318 319 321 324 325 325 324 326 328 328
303 245 207 215 240 262 262 221 164 276 280 282 45 120 274 308 234 224 198 205 219 199 196 204 202 205 210 211 210 206 204 206 208 208 206 206 207 208 211 210 208 210 215 220 224 225 223 219 219 222 223 224 223 221 219 218 218 219 224 233 228 217 210 209 211 211 213 217 225 236 263 284 280 288 321 334 333 330 332 321 315 322 327 327 323 317 314 316 318 321 323 324 323 323 327 330 330
244 241 162 192 229 244 243 184 177 232 244 328 2 116 206 303 282 257 210 208 229 225 216 208 205 206 207 210 211 208 205 206 208 209 209 210 211 210 212 213 213 214 218 222 224 225 224 221 221 224 226 225 223 221 219 218 218 222 229 236 233 221 212 208 213 216 219 226 234 249 273 276 268 274 314 346 351 351 355 344 331 328 327 322 316 313 313 315 318 320 321 321 321 324 329 334 336
247 256 184 189 233 226 204 169 186 236 43 322 303 125 116 277 277 299 196 211 235 235 227 214 208 208 208 210 211 209 208 207 209 210 210 211 212 213 214 214 215 216 219 224 225 224 223 222 223 226 227 226 224 222 219 218 220 224 231 238 233 222 213 208 211 218 223 230 238 254 266 264 263 278 307 334 338 338 335 332 329 324 320 318 314 313 314 315 318 319 320 320 321 326 334 339 343
251 286 297 94 36 193 137 136 149 66 28 282 268 183 134 279 279 134 171 218 237 232 228 218 211 210 209 210 211 210 209 209 210 212 213 211 210 212 215 216 217 218 221 224 226 224 221 222 224 227 228 226 224 223 220 219 221 224 230 237 233 220 212 205 207 214 220 226 234 242 252 262 269 279 296 306 310 311 309 310 313 314 315 316 315 315 315 316 318 319 319 319 321 330 339 345 346
264 345 324 1 19 35 44 69 106 68 306 271 259 190 135 312 280 202 192 222 215 209 218 216 211 209 209 210 211 210 209 209 210 213 217 215 212 211 212 215 216 218 221 222 223 222 220 222 226 228 229 227 225 224 222 220 222 225 228 236 231 215 208 204 205 212 217 222 228 233 245 259 267 282 293 290 287 293 299 303 304 308 314 318 319 319 318 319 319 319 318 318 324 335 344 347 347
214 8 8 9 343 4 22 358 41 90 257 273 257 170 116 133 260 230 229 240 214 186 198 202 204 205 207 208 209 209 207 207 208 211 216 217 214 211 208 210 212 214 218 219 219 219 219 223 227 229 229 227 225 225 224 222 223 226 228 235 229 211 206 207 207 211 218 222 228 236 245 256 274 294 291 273 275 293 298 299 301 309 317 321 322 322 321 320 320 319 318 320 330 341 347 348 349
118 127 49 51 345 356 6 321 353 195 249 273 186 135 111 230 249 241 237 243 232 210 204 202 201 202 204 206 207 207 206 206 206 209 213 214 214 211 207 206 208 210 214 215 215 216 219 223 228 230 230 227 225 226 225 223 223 225 229 235 230 213 208 210 210 211 217 224 232 242 252 261 279 295 289 278 287 299 299 299 305 314 317 317 318 319 319 320 319 318 319 326 337 345 348 350 354
155 186 109 104 90 45 325 282 319 268 260 277 221 203 296 282 270 233 225 242 240 230 222 214 209 207 206 207 206 205 204 205 205 207 211 212 212 211 207 205 205 208 210 212 214 216 219 224 228 231 230 227 225 225 225 224 223 226 230 236 234 219 213 213 212 212 217 229 238 247 259 264 275 289 293 288 292 298 299 302 309 313 313 313 315 316 317 318 318 319 324 333 342 347 350 353 360
198 175 133 138 146 140 232 240 225 252 277 295 286 237 203 237 256 225 228 261 266 253 235 219 216 217 211 206 202 202 203 204 206 207 210 212 213 211 208 206 207 207 208 210 212 215 220 224 227 229 229 227 225 224 224 223 223 226 230 236 234 224 218 216 215 216 221 233 244 252 259 262 270 284 292 295 296 298 300 302 306 308 309 312 315 316 316 316 318 321 329 339 345 348 351 356 6
263 154 110 164 182 150 158 189 182 201 318 294 277 230 215 218 262 275 284 305 325 295 215 201 204 210 204 198 198 201 203 204 205 207 209 212 213 212 208 207 209 209 210 211 212 215 219 223 225 227 229 228 225 224 224 223 224 227 230 235 234 226 220 219 219 220 224 233 246 255 260 263 269 279 288 296 299 299 300 300 302 302 306 312 316 317 315 315 319 325 334 343 346 349 353 0 10
273 119 173 232 190 127 111 238 287 67 66 278 280 282 295 328 310 310 359 30 7 40 165 184 190 193 192 195 199 202 203 204 205 207 209 210 211 212 209 207 209 211 212 212 213 214 217 221 223 224 227 228 226 225 225 224 226 228 230 234 234 227 222 223 224 225 227 234 246 254 259 263 268 274 284 292 295 297 298 298 299 301 306 313 316 315 314 317 322 328 338 345 347 350 355 3 11
117 190 222 235 39 73 98 76 353 44 86 284 317 292 294 357 324 316 351 343 320 56 145 175 179 186 191 198 203 205 206 206 207 208 209 210 210 211 210 208 209 211 212 213 214 215 216 219 221 221 224 226 225 225 225 225 227 229 230 234 235 229 225 227 228 229 232 236 242 248 256 262 264 269 280 287 291 295 298 299 301 305 309 313 313 311 314 321 326 332 341 346 347 351 357 4 10
129 171 184 112 78 1 16 126 12 40 317 293 311 308 276 198 220 283 313 282 249 136 162 174 181 194 200 205 207 208 208 207 207 207 208 209 210 210 210 209 210 212 213 215 216 216 215 217 218 219 221 224 223 223 224 226 229 231 231 234 236 232 226 227 229 232 236 237 237 242 252 260 260 265 278 283 289 301 306 308 309 310 311 309 307 310 318 326 329 334 343 346 346 352 358 4 10
86 129 11 45 146 167 185 145 157 182 224 274 311 330 291 228 219 201 221 245 213 157 193 207 205 208 209 211 210 208 208 207 207 207 207 208 209 210 211 210 210 212 214 216 217 217 216 215 216 218 222 223 223 223 223 225 230 232 232 233 235 232 225 223 226 230 234 234 232 236 246 256 259 268 280 283 291 307 315 314 310 308 306 304 304 313 324 330 331 337 343 344 345 352 358 2 8
108 189 278 307 193 154 174 131 130 145 155 186 281 315 276 250 214 185 209 235 206 182 201 216 219 217 217 218 215 212 211 211 209 208 208 208 208 209 210 210 210 211 213 215 217 218 217 214 215 217 222 223 223 223 224 226 230 233 234 233 234 231 224 221 223 228 230 229 228 232 242 254 263 273 280 283 294 307 313 310 304 301 299 299 306 319 330 332 332 338 342 342 345 351 354 359 7
157 186 195 180 167 133 127 299 309 107 141 173 157 257 272 264 215 208 221 214 207 208 203 213 226 226 225 223 219 219 218 216 213 209 208 208 207 206 208 208 207 208 211 213 215 218 217 215 214 217 222 222 222 223 225 228 231 234 235 235 235 232 226 223 224 226 229 228 228 232 241 254 265 273 277 282 294 304 307 302 295 294 293 298 311 325 334 333 333 338 339 339 343 345 349 358 6